Stations météo

réclame
Mon MeteoGroup
Westdorpe aws, Pays-Bas (6319): Température de l'air & dewpoint: 12.11.2017 00:00:00 - 18.11.2017 00:00:00 (CET)Westdorpe aws, Pays-Bas (6319): Température de l'air 5cm: 12.11.2017 00:00:00 - 18.11.2017 00:00:00 (CET)Westdorpe aws, Pays-Bas (6319): Vitesse du vent & gusts: 12.11.2017 00:00:00 - 18.11.2017 00:00:00 (CET)Westdorpe aws, Pays-Bas (6319): Direction du vent: 12.11.2017 00:00:00 - 18.11.2017 00:00:00 (CET)Westdorpe aws, Pays-Bas (6319): reduced air pressure: 12.11.2017 00:00:00 - 18.11.2017 00:00:00 (CET)Westdorpe aws, Pays-Bas (6319): visibility: 12.11.2017 00:00:00 - 18.11.2017 00:00:00 (CET)Westdorpe aws, Pays-Bas (6319): Quantités de précipitations: 12.11.2017 00:00:00 - 18.11.2017 00:00:00 (CET)
Date & Time tt [°C] td [°C] tt 5cm [°C] ff [km/h] ff [knt] fx [km/h] fx [knt] dd ppp [hPa] vv [km] rr [mm]
18.11.2017 00:00:00 - - - - - - - - - - -
17.11.2017 23:00:00 2,4 1,2 0,6 11 6 11 6 SW 1026,5 28 0,0
17.11.2017 22:00:00 3,7 2,3 1,1 7 4 - - SW 1026,8 20 0,0
17.11.2017 21:00:00 3,8 2,7 1,1 7 4 7 4 WSW 1026,9 25 0,0
17.11.2017 20:00:00 4,3 3,2 2,4 7 4 7 4 WSW 1027,1 29 0,0
17.11.2017 19:00:00 5,4 3,8 2,6 4 2 - - SW 1027,1 29 0,0
17.11.2017 18:00:00 5,7 4,2 2,4 7 4 11 6 W 1027,4 37 0,0
17.11.2017 17:00:00 6,9 4,5 5,0 11 6 14 8 WNW 1027,4 43 0,0
17.11.2017 16:00:00 9,1 4,0 7,5 4 2 - - WNW 1027,4 43 0,0
17.11.2017 15:00:00 10,4 3,8 10,8 11 6 18 10 W 1027,7 36 0,0
17.11.2017 14:00:00 10,6 3,8 9,3 11 6 18 10 W 1027,9 35 0,0
17.11.2017 13:00:00 11,4 2,3 13,0 4 2 - - SW 1028,1 29 0,0
17.11.2017 12:00:00 9,6 5,9 9,8 4 2 7 4 WSW 1028,6 22 0,0
17.11.2017 11:00:00 8,5 6,4 8,6 4 2 4 2 W 1028,6 26 0,0
17.11.2017 10:00:00 6,7 6,0 6,9 0 0 - - N 1028,6 18 0,0
17.11.2017 09:00:00 3,9 3,5 1,4 4 2 4 2 SSW 1028,4 16 0,0
17.11.2017 08:00:00 3,5 3,2 1,0 4 2 7 4 WSW 1028,0 18 0,0
17.11.2017 07:00:00 4,0 3,3 1,7 4 2 - - SW 1027,5 21 0,0
17.11.2017 06:00:00 5,1 3,9 1,1 4 2 4 2 SSW 1027,3 24 0,0
17.11.2017 05:00:00 5,7 4,8 1,7 4 2 11 6 NNW 1027,0 29 0,0
17.11.2017 04:00:00 6,9 5,0 5,3 11 6 - - N 1026,8 27 0,0
17.11.2017 03:00:00 8,7 5,6 7,9 14 8 25 14 N 1026,5 28 0,0
17.11.2017 02:00:00 9,2 6,5 8,5 14 8 25 14 N 1026,0 30 0,0
17.11.2017 01:00:00 9,0 8,5 8,4 7 4 - - NW 1025,7 17 0,0
17.11.2017 00:00:00 9,1 8,3 8,8 0 0 25 14 N 1025,3 40 0,2
16.11.2017 23:00:00 10,0 7,9 9,6 18 10 29 16 N 1025,1 34 0,0
16.11.2017 22:00:00 10,3 10,0 10,0 14 8 - - WNW 1024,6 7 0,0
16.11.2017 21:00:00 9,8 9,4 8,8 14 8 22 12 SW 1023,9 5 0,0
16.11.2017 20:00:00 10,5 9,9 10,1 14 8 22 12 WSW 1023,8 7 0,0
16.11.2017 19:00:00 10,7 9,9 10,2 14 8 - - SW 1023,3 8 0,0
16.11.2017 18:00:00 10,6 9,8 10,2 14 8 25 14 SW 1022,9 8 0,0
16.11.2017 17:00:00 10,9 9,8 10,5 14 8 22 12 SW 1022,7 7 0,0
16.11.2017 16:00:00 11,0 9,8 10,9 14 8 - - SW 1022,5 8 0,0
16.11.2017 15:00:00 10,9 9,5 11,0 14 8 25 14 SSW 1022,5 9 0,0
16.11.2017 14:00:00 10,9 9,5 10,9 18 10 25 14 SW 1022,6 9 0,0
16.11.2017 13:00:00 10,6 9,2 10,9 14 8 - - SSW 1022,9 9 0,0
16.11.2017 12:00:00 10,0 8,9 10,0 18 10 25 14 SW 1023,2 7 0,0
16.11.2017 11:00:00 9,5 8,4 9,2 14 8 22 12 SSW 1023,4 6 0,0
16.11.2017 10:00:00 8,9 8,0 8,9 11 6 - - S 1023,1 7 0,0
16.11.2017 09:00:00 8,6 7,7 8,5 14 8 22 12 S 1023,1 6 0,0
16.11.2017 08:00:00 8,5 7,8 8,3 14 8 22 12 S 1022,7 6 0,0
16.11.2017 07:00:00 8,6 7,8 8,2 18 10 - - S 1022,4 6 0,0
16.11.2017 06:00:00 8,6 8,0 8,3 11 6 22 12 S 1022,6 5 0,0
16.11.2017 05:00:00 8,6 8,1 8,4 7 4 14 8 S 1022,9 5 0,0
16.11.2017 04:00:00 8,7 8,2 8,4 11 6 - - S 1023,3 6 0,0
16.11.2017 03:00:00 8,7 8,5 8,5 11 6 14 8 S 1023,5 3,9 0,0
16.11.2017 02:00:00 8,9 8,7 8,8 11 6 14 8 S 1023,8 2,9 0,0
16.11.2017 01:00:00 8,9 8,8 8,8 11 6 - - SSE 1024,0 2,4 0,0
16.11.2017 00:00:00 9,0 8,9 8,9 11 6 18 10 S 1024,4 2,5 0,0
15.11.2017 23:00:00 9,0 8,9 9,0 11 6 14 8 S 1024,5 3,5 0,0
15.11.2017 22:00:00 9,2 9,0 9,1 11 6 - - S 1024,8 2,9 0,0
15.11.2017 21:00:00 9,6 9,3 9,4 11 6 14 8 S 1024,8 3,1 0,0
15.11.2017 20:00:00 9,6 9,4 9,3 7 4 11 6 SSE 1024,5 3,2 0,0
15.11.2017 19:00:00 9,8 9,5 9,5 7 4 - - S 1025,0 3,6 0,0
15.11.2017 18:00:00 9,9 9,5 9,6 11 6 14 8 S 1024,8 4,1 0,0
15.11.2017 17:00:00 10,2 9,7 10,0 11 6 14 8 S 1025,0 3,7 0,0
15.11.2017 16:00:00 10,7 10,0 10,6 11 6 - - S 1025,1 6 0,0
15.11.2017 15:00:00 11,0 10,5 11,1 7 4 11 6 S 1024,9 5 0,0
15.11.2017 14:00:00 10,7 10,5 11,2 7 4 11 6 S 1025,0 3,2 0,0
15.11.2017 13:00:00 10,4 10,2 10,6 7 4 - - S 1025,2 3,1 0,0
15.11.2017 12:00:00 10,1 9,7 10,2 11 6 18 10 SSW 1025,6 5 0,0
15.11.2017 11:00:00 9,7 9,6 9,8 7 4 14 8 S 1025,6 2,8 0,0
15.11.2017 10:00:00 9,2 9,2 9,3 11 6 - - SSW 1025,3 1,7 0,1
15.11.2017 09:00:00 8,9 8,9 8,9 7 4 14 8 S 1025,5 1,6 0,0
15.11.2017 08:00:00 8,8 8,8 8,7 7 4 14 8 SSW 1025,0 2,3 0,0
15.11.2017 07:00:00 8,8 8,6 8,7 7 4 - - SSW 1024,6 3,0 0,0
15.11.2017 06:00:00 8,9 8,7 8,7 11 6 18 10 SSW 1024,4 1,9 0,0
15.11.2017 05:00:00 8,9 8,4 8,7 14 8 18 10 S 1024,5 5 0,0
15.11.2017 04:00:00 8,9 8,3 8,7 11 6 - - S 1024,5 7 0,0
15.11.2017 03:00:00 8,8 8,3 8,7 11 6 14 8 S 1024,8 4,7 0,0
15.11.2017 02:00:00 8,7 8,2 8,6 11 6 18 10 S 1024,9 7 0,0
15.11.2017 01:00:00 8,9 8,3 8,7 11 6 - - S 1024,9 7 0,0
15.11.2017 00:00:00 8,8 8,2 8,5 11 6 18 10 S 1024,8 7 0,0
14.11.2017 23:00:00 8,9 8,5 8,5 7 4 14 8 S 1024,9 4,8 0,0
14.11.2017 22:00:00 8,6 8,3 8,4 11 6 - - S 1025,0 4,1 0,0
14.11.2017 21:00:00 8,6 8,0 8,2 11 6 22 12 SSW 1024,9 7 0,0
14.11.2017 20:00:00 8,3 7,9 8,1 11 6 25 14 S 1024,8 9 0,0
14.11.2017 19:00:00 8,7 8,2 8,5 18 10 - - SW 1024,5 8 0,0
14.11.2017 18:00:00 8,6 7,8 8,4 18 10 25 14 SW 1024,4 8 0,0
14.11.2017 17:00:00 9,2 7,2 8,8 18 10 25 14 SW 1024,1 10 0,0
14.11.2017 16:00:00 9,2 7,2 8,9 18 10 - - SW 1023,8 20 0,0
14.11.2017 15:00:00 9,4 6,7 9,3 18 10 32 18 SW 1023,8 34 0,0
14.11.2017 14:00:00 9,0 6,1 8,8 22 12 40 21 SW 1023,9 37 0,0
14.11.2017 13:00:00 8,8 5,7 8,8 25 14 - - SW 1023,8 34 0,0
14.11.2017 12:00:00 8,6 5,1 8,5 22 12 32 18 SSW 1024,3 33 0,0
14.11.2017 11:00:00 7,6 4,5 7,6 22 12 32 18 SSW 1024,9 31 0,0
14.11.2017 10:00:00 6,7 4,3 6,3 22 12 - - SSW 1024,5 29 0,0
14.11.2017 09:00:00 6,3 4,2 5,8 22 12 29 16 SSW 1024,3 29 0,0
14.11.2017 08:00:00 6,0 3,8 5,2 18 10 25 14 SSW 1024,3 33 0,0
14.11.2017 07:00:00 5,0 3,7 4,1 14 8 - - SW 1024,2 24 0,0
14.11.2017 06:00:00 4,3 3,3 3,4 11 6 18 10 SW 1024,0 21 0,0
14.11.2017 05:00:00 4,7 3,7 3,8 11 6 14 8 SW 1024,3 26 0,0
14.11.2017 04:00:00 4,0 3,5 2,5 11 6 - - SW 1024,3 21 0,0
14.11.2017 03:00:00 3,6 3,2 2,5 11 6 14 8 SW 1024,7 19 0,0
14.11.2017 02:00:00 3,9 3,4 2,8 11 6 14 8 SW 1024,6 22 0,0
14.11.2017 01:00:00 5,1 4,4 4,5 11 6 - - SW 1024,6 40 0,0
14.11.2017 00:00:00 5,5 4,7 5,0 11 6 14 8 WSW 1024,8 30 0,0
13.11.2017 23:00:00 3,6 2,9 2,6 11 6 11 6 WSW 1024,6 28 0,0
13.11.2017 22:00:00 3,5 2,7 1,9 11 6 - - WSW 1024,5 18 0,0
13.11.2017 21:00:00 4,9 3,2 1,7 4 2 14 8 WSW 1024,2 30 0,0
13.11.2017 20:00:00 4,7 2,9 2,3 7 4 14 8 WNW 1024,0 26 0,0
13.11.2017 19:00:00 5,5 3,6 4,0 11 6 - - WNW 1023,8 37 0,0
13.11.2017 18:00:00 6,5 3,8 5,1 7 4 29 16 NW 1023,2 43 0,0
13.11.2017 17:00:00 8,6 3,9 7,5 22 12 36 19 NNW 1022,8 36 0,0
13.11.2017 16:00:00 9,4 4,9 8,8 22 12 - - NNW 1022,2 24 0,0
13.11.2017 15:00:00 9,6 5,9 9,0 11 6 47 25 N 1021,7 24 0,8
13.11.2017 14:00:00 7,8 4,6 8,4 29 16 50 27 N 1022,0 19 0,4
13.11.2017 13:00:00 8,9 4,4 8,9 29 16 - - N 1021,4 13 0,0
13.11.2017 12:00:00 9,9 4,8 10,1 18 10 36 19 NNW 1021,1 35 0,0
13.11.2017 11:00:00 8,5 4,7 8,6 29 16 47 25 N 1021,3 27 0,0
13.11.2017 10:00:00 8,7 4,5 7,8 14 8 43 23 N 1020,2 26 0,0
13.11.2017 09:00:00 7,7 3,8 6,8 18 10 36 19 N 1019,6 46 0,0
13.11.2017 08:00:00 7,6 3,4 6,5 22 12 40 21 NNW 1018,6 25 0,0
13.11.2017 07:00:00 7,5 3,6 5,6 18 10 29 16 NNW 1018,0 24 0,0
13.11.2017 06:00:00 7,1 3,9 5,1 14 8 29 16 NNW 1017,3 23 0,0
13.11.2017 05:00:00 7,7 3,8 6,1 22 12 43 23 NNW 1016,4 35 0,4
13.11.2017 04:00:00 7,0 4,3 6,5 22 12 43 23 N 1016,1 28 0,5
13.11.2017 03:00:00 6,9 3,7 5,6 14 8 58 31 NNW 1015,3 23 0,1
13.11.2017 02:00:00 8,0 3,6 6,6 22 12 43 23 NNW 1014,2 33 0,0
13.11.2017 01:00:00 5,0 3,6 3,2 7 4 14 8 W 1013,6 46 0,0
13.11.2017 00:00:00 5,7 4,1 4,9 7 4 25 14 ENE 1012,9 24 0,1
12.11.2017 23:00:00 6,8 4,1 6,0 29 16 43 23 N 1012,0 18 0,2
12.11.2017 22:00:00 6,7 4,0 6,0 22 12 32 18 NW 1011,1 20 0,4
12.11.2017 21:00:00 6,2 4,8 5,5 7 4 25 14 NNW 1010,0 23 0,3
12.11.2017 20:00:00 6,9 4,2 5,9 22 12 36 19 N 1008,8 45 0,5
12.11.2017 19:00:00 6,6 4,7 6,1 22 12 65 35 N 1007,3 17 1,0
12.11.2017 18:00:00 7,2 4,5 6,6 36 19 58 31 N 1005,7 14 0,7
12.11.2017 17:00:00 6,9 4,8 6,4 36 19 58 31 NW 1004,4 9 0,9
12.11.2017 16:00:00 6,2 4,7 5,5 36 19 61 33 WNW 1003,5 10 2,0
12.11.2017 15:00:00 5,9 3,9 5,6 36 19 58 31 WNW 1003,7 10 0,6
12.11.2017 14:00:00 6,7 3,6 5,8 32 18 65 35 NW 1003,5 35 0,1
12.11.2017 13:00:00 8,1 3,0 7,5 36 19 58 31 NW 1003,1 45 0,2
12.11.2017 12:00:00 8,4 3,3 8,2 36 19 47 25 WNW 1002,7 45 0,0
12.11.2017 11:00:00 7,3 5,9 7,8 18 10 22 12 WSW 1003,0 33 0,0
12.11.2017 10:00:00 6,4 5,5 6,4 11 6 14 8 WSW 1003,6 22 0,0
12.11.2017 09:00:00 5,9 5,0 5,6 7 4 22 12 WNW 1004,2 23 0,4
12.11.2017 08:00:00 6,1 5,4 5,8 14 8 25 14 WSW 1005,0 11 0,5
12.11.2017 07:00:00 6,1 5,0 5,4 11 6 14 8 WSW 1005,0 15 0,0
12.11.2017 06:00:00 5,6 4,5 4,8 7 4 11 6 SSW 1005,9 16 0,0
12.11.2017 05:00:00 5,4 4,3 4,6 7 4 11 6 SSW 1007,0 19 0,0
12.11.2017 04:00:00 5,0 4,0 4,3 7 4 11 6 SW 1008,1 23 0,0
12.11.2017 03:00:00 4,9 3,8 3,9 7 4 11 6 SSW 1008,8 25 0,0
12.11.2017 02:00:00 5,1 3,6 3,6 7 4 11 6 SSW 1009,5 27 0,0
12.11.2017 01:00:00 5,0 3,7 3,6 7 4 7 4 SW 1010,5 27 0,0
12.11.2017 00:00:00 5,4 4,2 3,4 4 2 11 6 SSW 1010,7 23 0,0

tt = Température de l'air
td = dewpoint
tt 5cm = Température de l'air 5cm
ff = Vitesse du vent
fx = gusts
dd = Direction du vent
ppp = reduced air pressure
vv = visibility
rr = Quantités de précipitations

stations d'obs. à proximité